STARLINK-34436 (64358 NORAD) Tracking and Keplerian Element Data

This shows tracking and keplerian element data for the satellite.

Feedback or suggestion? Click here.




ElementValue
Catalog64358
NameSTARLINK-34436
Epoch Orbit2876
Epoch Day354.09983616
Epoch Year2025
RAAN234.981
Inclination69.9993
Eccentricity0.0002748
Argument of Perigee269.6341
Mean Anonmoly90.4503
Mean Motion14.98337517
Decay Rate2.907E-05
L11 64358U 25126Q 25354.09983616 .00002907 00000+0 25129-3 0 9992
L22 64358 69.9993 234.9810 0002748 269.6341 90.4503 14.98337517 28764



Live tracking and technical data element details for STARLINK-34436 (NORAD 64358). STARLINK-34436 can be tracked NOW for your location showing map with azimuth and elevation plus other details from your city location.







IsCatalogInMostPopularTable: catalog: 64358, numindb: 11
Update: records affected: 1



GetName: 64358 STARLINK-34436

Hit Count: updated at: Tue, 21 Apr 2026 19:46:47 GMT